Volver al catálogo

GJZ 05

ActivoMilitarLEO
NORAD 62294·PAYLOAD·🇨🇳 China

Lanzado Dec 12, 2024 desde Jiuquan Satellite Launch Center

Loading…

Próximos Pases (próximas 24 horas)

TLE

ActualizadoSource: Space-Track

Época: Sep 14, 2026, 20:19 UTC

1 62294U 24238E   26257.84707308 -.00000049  00000-0  72524-4 0  9999
2 62294  59.9146 359.5883 0022601  66.4529 293.8849 13.75197891 88249

Sigue GJZ 05 en tiempo real con AllMySat

Download on the App Store